Location: Shandelee
(41.8790°N, 74.8713°W)
Time: 03:55:53
(UTC+00:00)

CZ-2C R/B - Pass Details

Date: 29 October 2020
Orbit: 703 x 909 km, 98.1° (Epoch: 23 November)

Event Time Altitude Azimuth Distance (km) Brightness Sun altitude
Rises 22:38:11 0° 133° (SE) 3,521 6.1 -8.3°
Reaches altitude 10° 22:40:57 10° 122° (ESE) 2,573 5.3 -8.8°
Maximum altitude 22:45:42 28° 66° (ENE) 1,615 4.1 -9.7°
Drops below altitude 10° 22:50:21 10° 10° (N) 2,511 5.5 -10.5°
Sets 22:53:00 0° 359° (N) 3,422 6.3 -11.0°
